FW0864 Weather Reports


time (UTC)temp
F
wind
direction
speed
knots
gust
knots
rain 1hr
in
rain 24hr
in
rain mn
in
humidity
%
barometer
mb
20260506105049 54 354 0.0 2.6 0.00 0.00 0.00 87 1015.9
20260506104551 54 17 0.0 3.5 0.00 0.00 0.00 87 1015.8
20260506104048 54 345 0.0 4.3 0.00 0.00 0.00 87 1015.8
20260506103548 54 341 1.7 4.3 0.00 0.00 0.00 87 1015.7
20260506103048 54 332 1.7 4.3 0.00 0.00 0.00 87 1015.7
20260506102547 54 330 2.6 5.2 0.00 0.00 0.00 87 1015.7
20260506102045 54 318 1.7 5.2 0.00 0.00 0.00 87 1015.7
20260506101554 54 336 1.7 3.5 0.00 0.00 0.00 87 1015.7
20260506101045 54 342 1.7 3.5 0.00 0.00 0.00 87 1015.7
20260506100548 54 346 0.9 3.5 0.00 0.00 0.00 86 1015.7
20260506100046 55 321 0.9 3.5 0.00 0.00 0.00 86 1015.7
20260506095547 55 332 0.9 3.5 0.00 0.00 0.00 86 1015.6
20260506095044 55 320 1.7 3.5 0.00 0.00 0.00 86 1015.6
20260506094553 55 326 0.9 2.6 0.00 0.00 0.00 86 1015.6
20260506094043 55 343 0.0 3.5 0.00 0.00 0.00 86 1015.5
20260506093547 55 343 0.9 4.3 0.00 0.00 0.00 85 1015.5
20260506093047 55 345 2.6 4.3 0.00 0.00 0.00 85 1015.4
20260506092542 55 332 1.7 4.3 0.00 0.00 0.00 85 1015.3
20260506092042 55 349 2.6 4.3 0.00 0.00 0.00 85 1015.3
20260506091542 55 338 1.7 4.3 0.00 0.00 0.00 85 1015.2
20260506091045 55 342 0.9 5.2 0.00 0.00 0.00 85 1015.2
20260506090544 55 338 2.6 7.8 0.00 0.00 0.00 85 1015.1
20260506090043 55 343 1.7 7.8 0.00 0.00 0.00 85 1015.0
20260506085539 55 322 3.5 7.0 0.00 0.00 0.00 84 1014.9
20260506085038 56 313 2.6 7.0 0.00 0.00 0.00 84 1015.0
20260506084538 56 320 2.6 6.1 0.00 0.00 0.00 84 1015.2
20260506084037 56 295 2.6 7.0 0.00 0.00 0.00 85 1015.3
20260506083541 56 339 2.6 7.0 0.00 0.00 0.00 85 1015.2
20260506083037 56 320 2.6 7.0 0.00 0.00 0.00 85 1015.4
20260506082539 56 328 0.9 4.3 0.00 0.00 0.00 85 1015.6
20260506082035 56 333 0.9 3.5 0.00 0.00 0.00 85 1015.8
20260506081534 56 38 1.7 4.3 0.00 0.00 0.00 85 1016.0
20260506081034 57 341 1.7 7.0 0.00 0.00 0.00 85 1016.0
20260506080533 57 68 1.7 4.3 0.00 0.00 0.00 84 1016.0
20260506073528 57 4 0.9 4.3 0.00 0.00 0.00 83 1015.5
20260506073027 57 332 1.7 3.5 0.00 0.00 0.00 83 1015.4
20260506072527 57 345 0.9 4.3 0.00 0.00 0.00 83 1015.4
20260506072025 57 354 0.9 2.6 0.00 0.00 0.00 83 1015.3
20260506071526 57 354 0.9 4.3 0.00 0.00 0.00 83 1015.3
20260506071025 57 343 0.9 4.3 0.00 0.00 0.00 83 1015.2
20260506070523 57 332 1.7 3.5 0.00 0.00 0.00 83 1015.1
20260506062019 58 334 0.0 2.6 0.00 0.00 0.00 81 1014.5
20260506061519 58 339 0.9 2.6 0.00 0.00 0.00 81 1014.5
20260506061019 58 330 0.9 2.6 0.00 0.00 0.00 80 1014.5
20260506060521 59 327 0.9 2.6 0.00 0.00 0.00 80 1014.5
20260506051017 60 324 1.7 3.5 0.00 0.00 0.00 78 1014.2
20260506050521 60 277 1.7 3.5 0.00 0.00 0.00 77 1014.2
20260506045013 60 305 1.7 3.5 0.00 0.00 0.00 76 1014.1
20260506044513 61 321 1.7 4.3 0.00 0.00 0.00 75 1014.0
20260506044019 61 316 1.7 4.3 0.00 0.00 0.00 75 1013.9
20260506043512 61 312 1.7 4.3 0.00 0.00 0.00 74 1013.8
20260506043011 61 324 1.7 3.5 0.00 0.00 0.00 73 1013.8
20260506042511 61 303 0.9 3.5 0.00 0.00 0.00 73 1013.7
20260506042017 61 305 1.7 3.5 0.00 0.00 0.00 72 1013.6
20260506041522 61 335 0.9 3.5 0.00 0.00 0.00 72 1013.5
20260506041012 62 312 1.7 3.5 0.00 0.00 0.00 72 1013.4
20260506040515 62 304 0.9 3.5 0.00 0.00 0.00 71 1013.5
20260506040009 62 298 0.9 3.5 0.00 0.00 0.00 71 1013.4
20260506035507 62 321 0.9 4.3 0.00 0.00 0.00 70 1013.3
20260506035007 62 319 1.7 4.3 0.00 0.00 0.00 70 1013.1
20260506034508 62 328 0.9 4.3 0.00 0.00 0.00 70 1013.1
20260506034007 62 280 0.9 5.2 0.00 0.00 0.00 69 1013.1
20260506033506 62 316 1.7 2.6 0.00 0.00 0.00 69 1013.0
20260506033006 63 290 0.9 4.3 0.00 0.00 0.00 69 1012.9
20260506032508 63 327 1.7 4.3 0.00 0.00 0.00 69 1012.9
20260506032007 63 314 0.9 4.3 0.00 0.00 0.00 68 1012.8
20260506031512 63 331 0.9 5.2 0.00 0.00 0.00 68 1012.7
20260506031006 63 306 1.7 5.2 0.00 0.00 0.00 67 1012.6
20260506030508 63 326 1.7 4.3 0.00 0.00 0.00 67 1012.6
20260506030008 64 270 0.9 5.2 0.00 0.00 0.00 66 1012.6
20260506025505 64 316 0.9 5.2 0.00 0.00 0.00 66 1012.5
20260506025009 64 324 2.6 5.2 0.00 0.00 0.00 65 1012.4
20260506024506 64 336 1.7 5.2 0.00 0.00 0.00 65 1012.4
20260506024005 64 299 2.6 7.0 0.00 0.00 0.00 65 1012.4
20260506023506 65 329 3.5 7.8 0.00 0.00 0.00 64 1012.3
20260506023004 65 324 1.7 7.8 0.00 0.00 0.00 64 1012.2
20260506022504 65 354 3.5 8.7 0.00 0.00 0.00 64 1012.3
20260506022005 65 334 1.7 7.8 0.00 0.00 0.00 64 1012.2
20260506021506 65 341 2.6 8.7 0.00 0.00 0.00 63 1012.2
20260506021004 65 320 2.6 5.2 0.00 0.00 0.00 63 1012.2
20260506020507 65 339 1.7 7.8 0.00 0.00 0.00 63 1012.1
20260506020004 65 324 2.6 8.7 0.00 0.00 0.00 62 1012.1
20260506015504 66 21 1.7 8.7 0.00 0.00 0.00 63 1012.1
20260506015004 66 288 1.7 5.2 0.00 0.00 0.00 62 1012.1
20260506014507 66 316 2.6 7.0 0.00 0.00 0.00 62 1012.1
20260506014003 66 296 2.6 8.7 0.00 0.00 0.00 62 1012.0
20260506013503 66 307 3.5 8.7 0.00 0.00 0.00 61 1012.1
20260506013002 67 286 4.3 8.7 0.00 0.00 0.00 61 1012.1
20260506012504 66 313 2.6 7.0 0.00 0.00 0.00 61 1012.1
20260506012001 66 359 3.5 7.8 0.00 0.00 0.00 60 1012.1
20260506011502 66 330 1.7 7.8 0.00 0.00 0.00 60 1012.1
20260506011001 66 336 3.5 7.0 0.00 0.00 0.00 60 1012.2
20260506010501 67 21 3.5 10.4 0.00 0.00 0.00 59 1012.2
20260506010003 67 285 4.3 10.4 0.00 0.00 0.00 58 1012.2
20260506005602 67 307 1.7 9.6 0.00 0.00 0.00 58 1012.1
20260506005002 68 287 3.5 10.4 0.00 0.00 0.00 57 1012.1
20260506004601 68 263 7.0 10.4 0.00 0.00 0.00 56 1012.1
20260506004102 68 359 2.6 9.6 0.00 0.00 0.00 58 1012.2
20260506003559 68 331 3.5 7.8 0.00 0.00 0.00 58 1012.2
20260506003059 67 265 4.3 8.7 0.00 0.00 0.00 59 1012.2
20260506002559 67 325 2.6 8.7 0.00 0.00 0.00 59 1012.1
20260506002100 67 320 4.3 9.6 0.00 0.00 0.00 58 1012.1
20260506001618 67 262 5.2 10.4 0.00 0.00 0.00 58 1012.2
20260506001059 67 291 6.1 10.4 0.00 0.00 0.00 58 1012.2
20260506000558 67 233 4.3 9.6 0.00 0.00 0.00 59 1012.1
20260506000101 66 258 3.5 8.7 0.00 0.00 0.00 59 1012.0
20260505235558 66 335 4.3 8.7 0.00 0.00 0.00 60 1012.0
20260505235102 67 332 4.3 10.4 0.00 0.00 0.00 58 1012.0
20260505234600 68 252 4.3 10.4 0.00 0.00 0.00 58 1012.0
20260505234101 67 285 6.1 10.4 0.00 0.00 0.00 58 1012.0
20260505233557 67 330 5.2 10.4 0.00 0.00 0.00 59 1012.0
20260505233059 67 277 3.5 8.7 0.00 0.00 0.00 59 1012.0
20260505232557 67 294 4.3 8.7 0.00 0.00 0.00 60 1012.1
20260505232058 67 258 3.5 8.7 0.00 0.00 0.00 59 1012.0
20260505231558 67 308 4.3 11.3 0.00 0.00 0.00 59 1012.1
20260505231057 66 320 4.3 11.3 0.00 0.00 0.00 60 1012.1
20260505230556 66 307 3.5 10.4 0.00 0.00 0.00 61 1012.1
20260505230116 67 312 2.6 10.4 0.00 0.00 0.00 59 1012.2
20260505225556 68 289 4.3 8.7 0.00 0.00 0.00 58 1012.1
20260505225057 68 314 3.5 11.3 0.00 0.00 0.00 59 1012.2
20260505224555 67 260 4.3 11.3 0.00 0.00 0.00 58 1012.2
20260505224054 67 231 3.5 10.4 0.00 0.00 0.00 60 1012.3
20260505223554 67 282 3.5 13.0 0.00 0.00 0.00 61 1012.2
20260505223058 67 245 7.0 13.0 0.00 0.00 0.00 60 1012.3
20260505222554 66 284 3.5 7.8 0.00 0.00 0.00 60 1012.2
20260505222054 67 282 3.5 11.3 0.00 0.00 0.00 60 1012.2
20260505221555 67 275 4.3 11.3 0.00 0.00 0.00 61 1012.3
20260505221053 66 297 7.0 11.3 0.00 0.00 0.00 59 1012.4
20260505220553 67 277 2.6 13.0 0.00 0.00 0.00 60 1012.3
20260505220052 67 256 4.3 11.3 0.00 0.00 0.00 60 1012.3
20260505215551 66 316 7.0 10.4 0.00 0.00 0.00 60 1012.3
20260505215051 66 266 5.2 10.4 0.00 0.00 0.00 59 1012.3
20260505214601 66 301 4.3 10.4 0.00 0.00 0.00 60 1012.3
20260505214050 66 272 4.3 12.2 0.00 0.00 0.00 60 1012.4
20260505213549 66 251 4.3 12.2 0.00 0.00 0.00 61 1012.5
20260505213056 66 318 3.5 9.6 0.00 0.00 0.00 61 1012.5
20260505212548 65 342 3.5 9.6 0.00 0.00 0.00 62 1012.5
20260505212048 65 272 6.1 10.4 0.00 0.00 0.00 62 1012.5
20260505211548 65 312 4.3 11.3 0.00 0.00 0.00 62 1012.5
20260505211050 65 339 4.3 11.3 0.00 0.00 0.00 61 1012.5
20260505210547 65 233 2.6 5.2 0.00 0.00 0.00 62 1012.5
20260505210049 64 265 1.7 9.6 0.00 0.00 0.00 63 1012.6
20260505205546 64 312 4.3 9.6 0.00 0.00 0.00 62 1012.6
20260505205047 64 279 3.5 9.6 0.00 0.00 0.00 62 1012.7
20260505204545 64 4 4.3 12.2 0.00 0.00 0.00 62 1012.7
20260505204045 64 29 2.6 12.2 0.00 0.00 0.00 63 1012.7
20260505203545 64 287 4.3 9.6 0.00 0.00 0.00 62 1012.7
20260505203048 64 274 4.3 11.3 0.00 0.00 0.00 63 1012.8
20260505202543 64 300 2.6 11.3 0.00 0.00 0.00 63 1012.7
20260505202047 64 322 6.1 12.2 0.00 0.00 0.00 63 1012.8
20260505201550 63 243 6.1 12.2 0.00 0.00 0.00 64 1012.7
20260505201042 63 259 3.5 8.7 0.00 0.00 0.00 62 1012.9
20260505200540 63 295 1.7 10.4 0.00 0.00 0.00 64 1012.9
20260505200041 63 303 3.5 10.4 0.00 0.00 0.00 65 1012.9
20260505195539 63 321 4.3 10.4 0.00 0.00 0.00 65 1012.9
20260505195041 63 255 4.3 9.6 0.00 0.00 0.00 66 1012.9
20260505194540 62 266 4.3 10.4 0.00 0.00 0.00 66 1013.0
20260505194038 62 337 3.5 8.7 0.00 0.00 0.00 67 1013.0
20260505193541 62 306 4.3 10.4 0.00 0.00 0.00 66 1013.0
20260505193046 62 341 5.2 10.4 0.00 0.00 0.00 65 1013.1
20260505192542 63 256 4.3 8.7 0.00 0.00 0.00 65 1013.0
20260505192037 62 310 4.3 8.7 0.00 0.00 0.00 66 1013.0
20260505191548 62 341 4.3 9.6 0.00 0.00 0.00 67 1013.0
20260505191035 62 245 5.2 10.4 0.00 0.00 0.00 66 1013.2
20260505190534 62 247 6.1 10.4 0.00 0.00 0.00 67 1013.0
20260505190037 61 279 3.5 10.4 0.00 0.00 0.00 67 1013.1
20260505185535 61 332 6.1 10.4 0.00 0.00 0.00 66 1013.0
20260505185033 61 335 4.3 9.6 0.00 0.00 0.00 67 1013.0
20260505184533 61 315 4.3 9.6 0.00 0.00 0.00 66 1012.9
20260505184034 61 328 4.3 9.6 0.00 0.00 0.00 66 1012.9
20260505183535 61 249 3.5 8.7 0.00 0.00 0.00 67 1012.9
20260505183047 61 330 1.7 9.6 0.00 0.00 0.00 69 1013.0
20260505182533 61 29 3.5 11.3 0.00 0.00 0.00 68 1013.0
20260505182031 61 52 2.6 11.3 0.00 0.00 0.00 70 1013.0
20260505181531 61 336 4.3 11.3 0.00 0.00 0.00 68 1013.0
20260505181032 61 318 2.6 9.6 0.00 0.00 0.00 71 1012.9
20260505180528 60 258 4.3 9.6 0.00 0.00 0.00 71 1012.8
20260505180035 60 354 3.5 9.6 0.00 0.00 0.00 71 1012.8
20260505175526 60 327 3.5 9.6 0.00 0.00 0.00 72 1012.8
20260505175025 59 295 2.6 8.7 0.00 0.00 0.00 73 1012.7
20260505174531 59 291 2.6 8.7 0.00 0.00 0.00 74 1012.8
20260505174023 59 314 2.6 7.8 0.00 0.00 0.00 74 1012.8
20260505173521 59 322 2.6 8.7 0.00 0.00 0.00 74 1012.6
20260505173033 59 335 1.7 8.7 0.00 0.00 0.00 75 1012.6
20260505172519 58 339 3.5 8.7 0.00 0.00 0.00 75 1012.5
20260505172025 58 349 3.5 10.4 0.00 0.00 0.00 76 1012.5
20260505171527 58 324 4.3 9.6 0.00 0.00 0.00 76 1012.5
20260505171017 58 278 1.7 8.7 0.00 0.00 0.00 77 1012.5
20260505170519 58 332 2.6 8.7 0.00 0.00 0.00 77 1012.6
20260505170017 58 289 3.5 7.0 0.00 0.00 0.00 77 1012.7
20260505165516 58 330 1.7 7.0 0.00 0.00 0.00 78 1012.6
20260505165013 58 285 2.6 7.8 0.00 0.00 0.00 78 1012.5
20260505164528 58 302 4.3 8.7 0.00 0.00 0.00 78 1012.5
20260505164012 58 297 4.3 8.7 0.00 0.00 0.00 79 1012.5
20260505163512 57 272 3.5 7.8 0.00 0.00 0.00 79 1012.5
20260505163016 57 337 3.5 7.8 0.00 0.00 0.00 79 1012.5
20260505162511 57 331 1.7 4.3 0.00 0.00 0.00 80 1012.5
20260505162011 57 262 1.7 7.0 0.00 0.00 0.00 81 1012.4
20260505161511 56 342 2.6 8.7 0.00 0.00 0.00 80 1012.5
20260505161011 56 295 3.5 8.7 0.00 0.00 0.00 81 1012.4
20260505160510 56 317 4.3 8.7 0.00 0.00 0.00 81 1012.3
20260505153003 55 293 2.6 5.2 0.00 0.00 0.00 84 1012.3
20260505152503 55 316 1.7 5.2 0.00 0.00 0.00 84 1012.3
20260505152004 55 4 0.9 3.5 0.00 0.00 0.00 84 1012.2
20260505151502 55 253 0.0 4.3 0.00 0.00 0.00 85 1012.2
20260505151001 54 331 0.0 4.3 0.00 0.00 0.00 85 1012.1
20260505150601 54 322 1.7 4.3 0.00 0.00 0.00 85 1012.0
20260505150116 54 324 1.7 5.2 0.00 0.00 0.00 85 1012.1
20260505140552 54 320 1.7 5.2 0.00 0.00 0.00 87 1011.8
20260505140104 54 318 2.6 5.2 0.00 0.00 0.00 87 1011.8
20260505124545 53 314 0.0 2.6 0.00 0.00 0.00 87 1011.4
20260505124045 53 335 0.9 2.6 0.00 0.00 0.00 87 1011.3
20260505123544 53 298 0.9 2.6 0.00 0.00 0.00 87 1011.3
20260505123105 53 311 0.9 3.5 0.00 0.00 0.00 87 1011.2
20260505122544 53 316 1.7 3.5 0.00 0.00 0.00 87 1011.2
20260505122043 53 299 1.7 3.5 0.00 0.00 0.00 87 1011.2
20260505121543 53 324 0.9 4.3 0.00 0.00 0.00 87 1011.3
20260505121049 53 294 0.9 4.3 0.00 0.00 0.00 87 1011.2
20260505120544 53 304 1.7 4.3 0.00 0.00 0.00 87 1011.2
20260505120049 53 320 1.7 5.2 0.00 0.00 0.00 87 1011.3
20260505115542 53 302 2.6 7.8 0.00 0.00 0.00 87 1011.3
20260505115042 53 359 3.5 7.8 0.00 0.00 0.00 87 1011.3
20260505114552 53 316 1.7 7.8 0.00 0.00 0.00 87 1011.2
20260505114041 53 335 2.6 7.8 0.00 0.00 0.00 87 1011.3
20260505113540 53 316 1.7 7.0 0.00 0.00 0.00 87 1011.3
20260505113042 53 303 3.5 7.0 0.00 0.00 0.00 87 1011.4
20260505112539 53 354 3.5 7.0 0.00 0.00 0.00 87 1011.3
20260505112039 53 330 2.6 7.0 0.00 0.00 0.00 87 1011.4
20260505111539 53 293 2.6 8.7 0.00 0.00 0.00 87 1011.3
20260505111039 53 349 4.3 8.7 0.00 0.00 0.00 87 1011.4
20260505110537 53 341 3.5 7.0 0.00 0.00 0.00 87 1011.4